Regional Weather Roundup
Issued by NWS

Home | Current Version | Previous Version | Graphics & Text | Print | Product List | Glossary On
Versions: 1 2 3 4 5 6 7 8 9 10 11 12 13 14 15 16 17 18 19 20 21 22 23 24 25 26 27 28 29 30 31 32 33 34 35 36 37 38 39 40 41 42 43 44 45 46 47 48 49 50
854
ASUS43 KBIS 261210
RWRND

NORTH DAKOTA REGIONAL WEATHER ROUNDUP
NATIONAL WEATHER SERVICE BISMARCK ND
700 AM CDT THU APR 26 2018

NOTE: "FAIR" INDICATES FEW OR NO CLOUDS BELOW 12,000 FEET WITH NO
SIGNIFICANT WEATHER AND/OR OBSTRUCTIONS TO VISIBILITY.


NDZ001>003-009>011-017-261300-
NORTHWEST NORTH DAKOTA

CITY           SKY/WX    TMP DP  RH WIND       PRES   REMARKS
WILLISTON      CLEAR     28  22  78 CALM      30.16R
6HR MIN TEMP:  28; 6HR MAX TEMP:  45;

MINOT          CLEAR     34  28  79 SW3       30.11R
MINOT AFB      CLEAR     31  26  84 NW7       30.09R
$$

NDZ018>021-031>035-040>046-261300-
SOUTHWEST NORTH DAKOTA

CITY           SKY/WX    TMP DP  RH WIND       PRES   REMARKS
BISMARCK       CLEAR     40  31  70 NW10      30.10R
6HR MIN TEMP:  39; 6HR MAX TEMP:  53;

DICKINSON      CLEAR     32  28  85 W6        30.13R
GARRISON         N/A     32  28  85 NW9       30.11R
6HR MIN TEMP:  32; 6HR MAX TEMP:  47;

HETTINGER ARPT CLEAR     31  27  85 NW5       30.16R
$$

NDZ004>008-012>016-024-026-027-054-261300-
NORTHEAST NORTH DAKOTA

CITY           SKY/WX    TMP DP  RH WIND       PRES   REMARKS
GRAND FORKS    FAIR      36  31  82 NW13      29.99R
GRND FRKS AFB  FAIR      38  29  71 N12       30.00R
DEVILS LAKE    FAIR      33  27  78 NW9       30.06R
$$

NDZ022-023-025-028>030-036>039-047>053-261300-
SOUTHEAST NORTH DAKOTA

CITY           SKY/WX    TMP DP  RH WIND       PRES   REMARKS
FARGO          FAIR      40  33  76 N18       29.94R
6HR MIN TEMP:  40; 6HR MAX TEMP:  49;

JAMESTOWN      CLEAR     36  29  75 NW12      30.02R
$$





USA.gov is the U.S. government's official web portal to all federal, state and local government web resources and services.